Preview of NWS' New Version of Forecast
This preview is not operational and should not be used for support decisions.
Latest weather observations around

Los Angeles / USC Campus Downtown (KCQT)

Using English Units (Switch to International System of Units)
Date/ Time (PDT) Wind (mph) Vis. (mi) Weather Sky Cond. Temp (°F) Rel. Humidity Wind Chill (°F) Heat Index (°F) Pressure Precip. (in)
Air Dwpt 6 hour Altimeter (inHg) Sea level (inHg) 1 hr 3 hr 6 hr
Max Min
Sep 16 07:00 Calm 4 Haze SCT009 68 63     84%     29.9        
Sep 16 06:52 SE 3 4 Haze BKN009 68 63     84%     29.89 29.88      
Sep 16 05:52 Calm 4 Haze OVC008 68 63     84%     29.89 29.88      
Sep 16 04:52 Calm 5 Fog/Mist OVC009 67 63     87%     29.88 29.87      
Sep 16 04:36 Calm 5 Fog/Mist BKN010 67 63     87%     29.88        
Sep 16 04:31 Calm 5 Fog/Mist BKN009 67 63     87%     29.88        
Sep 16 04:16 Calm 5 Fog/Mist FEW009 67 63     87%     29.87        
Sep 16 03:52 Calm 4 Haze CLR 68 63     84%     29.88 29.87      
Sep 16 02:52 Calm 5 Haze CLR 68 63     84%     29.88 29.87      
Sep 16 01:52 Calm 6 Fog/Mist CLR 67 63     87%     29.89 29.88      
Sep 16 00:52 Calm 5 Fog/Mist CLR 68 64     87%     29.89 29.88      
Sep 15 23:52 Calm 4 Haze CLR 69 64     84%     29.88 29.86      
Sep 15 22:52 Calm 6 Haze CLR 70 64     81%     29.87 29.86      
Sep 15 21:52 Calm 8 Clear CLR 70 64     81%     29.86 29.85      
Sep 15 20:52 3 9 Clear CLR 71 64     79%   72 29.86 29.85      
Sep 15 19:52 W 5 10 Clear CLR 72 63     73%   72 29.85 29.84      
Sep 15 18:52 W 6 10 Clear CLR 74 63     69%   74 29.84 29.83      
Sep 15 17:52 Calm 10 Clear CLR 77 64     64%   77 29.84 29.83      
Sep 15 16:52 WSW 5 10 Clear CLR 79 64     60%   79 29.83 29.83      
Sep 15 15:52 WSW 6 10 Clear CLR 77 64     64%   77 29.85 29.84      
Sep 15 14:52   10 Clear CLR 82 65     56%   84 29.85 29.84      
Sep 15 13:52 3 7 Clear CLR 83 66     57%   85 29.86 29.84      
Sep 15 12:52 3 10 Clear CLR 85 61     45%   85 29.87 29.85      
Sep 15 11:52 3 10 Clear CLR 86 62     45%   87 29.87 29.86      
Sep 15 10:52 Calm 5 Haze CLR 79 64     60%   79 29.89 29.88      
Sep 15 09:52 Calm 4 Haze CLR 73 66     79%   74 29.9 29.89      
Sep 15 08:52 Calm 4 Haze CLR 70 64     81%     29.9 29.89      
Sep 15 08:29 Calm 3 Haze SCT003 SCT007 69 64     84%     29.9        
Sep 15 08:25 Calm 3 Haze SCT003 BKN007 69 64     84%     29.9        
Sep 15 08:11 Calm 3 Fog/Mist BKN002 68 64     87%     29.89        
Sep 15 07:55 Calm 2.5 Fog/Mist OVC002 68 64     87%     29.88        
Sep 15 07:52 Calm 1.75 Fog/Mist OVC002 68 64     87%     29.88 29.88      
Sep 15 07:32 Calm 1.75 Fog/Mist BKN002 67 64     90%     29.88        
Sep 15 07:28 W 3 2 Fog/Mist BKN002 68 64     87%     29.88        
Sep 15 07:24 W 3 2.5 Fog/Mist SCT002 67 64     90%     29.88        
Sep 15 07:11 Calm 4 Fog/Mist SCT002 68 64     87%     29.88        
Sep 15 07:07 Calm 3 Fog/Mist BKN002 68 64     87%     29.88        
Sep 15 07:03 Calm 2.5 Fog/Mist BKN002 67 64     90%     29.88        
Sep 15 06:52 Calm 1 Fog/Mist OVC002 67 65     93%     29.88 29.87      
Sep 15 05:52 Calm 0.5 Fog VV002 68 66     93%     29.87 29.85      
Sep 15 05:17 Calm 0.75 Fog/Mist VV002 69 65     87%     29.86        
Sep 15 05:12 Calm 1.25 Fog/Mist BKN002 69 65     87%     29.86        
Sep 15 05:09 Calm 2 Fog/Mist BKN002 69 65     87%     29.86        
Sep 15 05:02 W 3 7 Mostly Clear FEW002 69 65     87%     29.86        
Sep 15 04:52 Calm 8 Clear CLR 69 65     87%     29.85 29.84      
Sep 15 03:52 Calm 9 Clear CLR 71 66     84%   72 29.85 29.83      
Sep 15 02:52 Calm 9 Clear CLR 71 66     84%   72 29.86 29.85      
Sep 15 01:52 Calm 8 Clear CLR 73 67     81%   74 29.87 29.85      
Sep 15 00:52 Calm 9 Clear CLR 73 67     81%   74 29.87 29.86      
Sep 14 23:52 Calm 10 Clear CLR 74 67     79%   75 29.87 29.86      
Sep 14 22:52 Calm 10 Clear CLR 75 67     76%   76 29.87 29.86      
Sep 14 21:52 Calm 10 Clear CLR 75 67     76%   76 29.87 29.86      
Sep 14 20:52 Calm 10 Clear CLR 77 67     71%   78 29.86 29.85      
Sep 14 19:52 Calm 10 Clear CLR 79 62     56%   79 29.84 29.83      
Sep 14 18:52 WSW 5 10 Clear CLR 82 62     51%   83 29.83 29.82      
Sep 14 17:52 W 5 10 Clear CLR 85 63     48%   86 29.82 29.81      
Sep 14 16:52 5 10 Clear CLR 90 59     35%   89 29.83 29.82      
Sep 14 15:52 W 7 10 Clear CLR 92 50     24%   89 29.83 29.82      
Sep 14 14:52 Calm 10 Clear CLR 91 58     33%   90 29.85 29.84      
Sep 14 13:52 Calm 10 Clear CLR 90 66     45%   93 29.87 29.86      
Sep 14 12:52 3 10 Clear CLR 93 66     41%   96 29.89 29.87      
Sep 14 11:52 S 5 10 Clear CLR 94 61     34%   94 29.9 29.88      
Sep 14 10:52 Calm 10 Clear CLR 89 60     38%   89 29.92 29.9      
Sep 14 09:52 Calm 10 Clear CLR 84 64     51%   85 29.92 29.91      
Sep 14 08:52 Calm 9 Clear CLR 79 66     65%   80 29.92 29.91      
Sep 14 07:52 Calm 10 Clear CLR 73 63     71%   73 29.91 29.91      
Sep 14 06:52 Calm 10 Clear CLR 71 63     76%   71 29.91 29.9      
Sep 14 05:52 Calm 10 Clear CLR 72 64     76%   72 29.9 29.88      
Sep 14 04:52 Calm 10 Clear CLR 70 61     73%     29.89 29.88      
Sep 14 03:52 Calm 10 Clear CLR 71 61     70%   71 29.89 29.88      
Sep 14 02:52 Calm 10 Clear CLR 72 61     68%   72 29.89 29.88      
Sep 14 01:52 Calm 10 Clear CLR 73 61     66%   73 29.9 29.89      
Sep 14 00:52 Calm 10 Clear CLR 74 60     62%   74 29.9 29.89      
Sep 13 23:52 Calm 10 Clear CLR 75 61     62%   75 29.9 29.88      
Sep 13 22:52 Calm 10 Clear CLR 76 62     62%   76 29.89 29.87      
Sep 13 21:52 Calm 10 Clear CLR 75 62     64%   75 29.88 29.86      
Sep 13 20:52 Calm 10 Clear CLR 75 64     69%   75 29.87 29.86      
Sep 13 19:52 Calm 10 Clear CLR 77 64     64%   77 29.86 29.85      
Sep 13 18:52 W 5 10 Clear   78 63     60%   78 29.85 29.84      
Sep 13 17:52 7 10 Clear CLR 85 59     42%   85 29.85 29.84      
Sep 13 16:52   10 Clear CLR 87 59     39%   86 29.85 29.84      
Sep 13 15:52 W 7 10 Clear CLR 90 57     33%   89 29.86 29.85      
Sep 13 14:52 6 10 Clear CLR 91 57     32%   90 29.87 29.86      
Sep 13 13:52 6 10 Clear CLR 91 55     30%   89 29.89 29.88      
Sep 13 12:52 W 5 10 Clear CLR 90 61     38%   90 29.91 29.9      
Sep 13 11:52 3 10 Clear CLR 89 65     45%   91 29.93 29.92      
Sep 13 10:52 Calm 10 Clear CLR 90 60     37%   90 29.93 29.92      
Sep 13 09:52 Calm 10 Clear CLR 85 62     46%   86 29.94 29.93      
Sep 13 08:52 Calm 10 Clear CLR 77 63     62%   77 29.94 29.93      
Sep 13 07:52 Calm 10 Clear CLR 72 62     71%   72 29.94 29.93      
May 15 01:47 E 5 10 Clear   59 53     81%     29.99 29.98      
May 14 22:47 Calm 10 Clear CLR 60 53     78%     29.99 29.98      
May 14 09:54 5 10 Mostly Cloudy BKN025 68 54     61%     29.98        
May 13 11:47 Calm 6 Light Rain and Fog/Mist BKN012 OVC018 59 56     90%     30.07 30.07 0    
May 13 00:05 Calm 10 Cloudy BKN025 BKN031 OVC050 61 51     70%     30.01        
May 12 12:47 3 10 Cloudy SCT032 SCT040 OVC048 66 51     59%     29.98 29.97      
May 12 07:47 3 10 Cloudy FEW038 OVC050 60 52     75%     29.94 29.94      
May 12 05:00 Calm 4 Light Rain and Fog/Mist FEW009 OVC020 58 55     90%     29.91   0    
May 12 01:25 3 10 Cloudy SCT014 BKN020 OVC038 61 54     78%     29.88        
May 12 01:09 Calm 10 Clear   61 54     78%     29.88        
May 11 19:06 3 10 Cloudy BKN022 OVC030 62 53     72%     29.82        
Jun 11 20:47 W 3 10 Clear CLR 64 50     60%     29.93 29.93      
Jun 11 13:22 3 10 Clear   69 56     63%     29.91        
Jun 11 12:10 Calm 10 Cloudy BKN025 OVC039 69 56     63%     29.91        
Notice The following observation data may not be complete
Jun 11 10:44   10 Cloudy BKN028 BKN038 OVC055          %              
Jun 11 04:47 SE 3 10 Cloudy OVC017 63 54     72%     29.86 29.85      
Jun 10 20:47 Calm 10 Cloudy OVC023 66 56     70%     29.85 29.84      
Jun 10 19:47 3 10 Clear   67 56     68%     29.84 29.83      
Jun 10 13:47 W 6 10 Cloudy OVC035 70 58     66%     29.87 29.87      
Jun 10 11:31   10 Cloudy BKN027 OVC034 69 57     65%     29.89        
Jun 10 11:19 5 10 Cloudy SCT025 OVC034 69 57     65%     29.88        
Jun 10 07:47 Calm 10 Cloudy OVC022 65 57     76%     29.88 29.87      
Jun 08 21:47 Calm 10 Clear   63 55     75%     29.95 29.95      
Jun 08 20:47 Calm 10 Clear CLR 64 54     70%     29.94 29.94      
Jun 08 07:47 Calm 10 Cloudy OVC016 63 59     87%     29.99 29.98      
Jun 07 12:17 W 5 8 Cloudy OVC014 67 59     76%     29.98        
Jun 07 10:28 Calm 6 Clear   66 59     78%     29.96